Location: Middelsbur
(53.6609°N, 7.5020°E)
Time: 20:54:44
(UTC+00:00)

Daily predictions for brighter satellites

Satellite Brightness Start Highest point End
(mag) Time Altitude Azimuth Time Altitude Azimuth Time Altitude Azimuth
Cosmos 2278 Rocket 2.5 20:47:02 10° NNW 20:52:42 64° NE 20:58:20 10° SE
ATLAS 5 CENTAUR R/B 1.6 20:49:15 10° SW 20:53:28 70° SE 20:58:18 10° NE
Cosmos 1844 Rocket 3.8 20:49:32 10° NW 20:54:38 38° WSW 20:59:43 10° S
Cosmos 1892 4.5 20:52:08 10° SE 20:54:39 17° E 20:57:11 10° NE
CARTOSAT-1 3.6 20:50:35 10° SSE 20:54:54 89° E 20:59:16 10° NNW
Cosmos 1943 Rocket 4.2 20:51:05 10° NNW 20:55:26 22° NNE 20:59:47 10° E
USA 81 4.2 20:50:33 10° S 20:55:45 61° E 21:00:58 10° NNE
USA 267 3.3 20:51:21 10° ESE 20:57:57 88° SSW 21:04:34 10° WNW
Cosmos 1709 Rocket 4.1 20:52:55 10° S 20:59:15 88° E 21:05:40 10° N
Meteor 1-11 4.3 20:59:57 10° S 21:05:35 78° E 21:11:19 10° NNE
Cosmos-2242 4.2 21:01:39 10° NNW 21:05:43 40° W 21:09:47 10° SSW
Cosmos 1400 Rocket 4.3 21:02:50 10° NNW 21:06:28 34° W 21:10:02 10° SSW
SPOT 1/Viking Rocket 4.2 21:02:20 10° S 21:07:22 55° W 21:12:29 10° NNW
Cosmos 2221 2.7 21:06:31 10° N 21:10:54 63° ENE 21:15:13 10° SSE
Lacrosse 5 rocket 2.2 21:10:40 10° WNW 21:14:48 52° N 21:18:42 10° ENE
Cosmos 2184 Rocket 4.3 21:09:35 10° SSE 21:15:35 51° E 21:21:40 10° NNE
Resurs 01 Rocket 4.1 21:14:13 10° SW 21:17:09 17° W 21:20:05 10° NW
SAR-Lupe-2 3.7 21:13:47 10° NNE 21:17:23 76° WNW 21:20:58 10° SSW
Terra 1.9 21:15:14 10° SSE 21:19:59 83° WSW 21:24:48 10° NNW
TSX-5 3.6 21:23:03 10° NW 21:26:26 75° WSW 21:30:04 12° SSE
NOSS 3-4 (A) 3.9 21:21:35 10° NW 21:28:24 90° WSW 21:36:00 10° SE
NOSS 3-4 (C) 3.9 21:21:42 10° NW 21:28:31 90° NNE 21:36:07 10° SE
Cosmos 2058 3.6 21:27:37 12° SSE 21:31:14 40° E 21:35:07 10° NNE
Cosmos 2322 Rocket 4.1 21:27:24 10° WSW 21:32:30 34° NW 21:37:39 10° NNE
Cosmos 1624 Rocket 4.4 21:31:11 10° NNW 21:36:23 57° ENE 21:41:12 12° SE
NOSS 3-3 (A) 4.0 21:34:54 10° SSW 21:40:50 69° SE 21:47:36 10° NE
NOSS 3-3 (C) 4.0 21:35:01 10° SSW 21:40:56 69° SE 21:47:43 10° NE
Cosmos 1825 3.7 21:39:57 13° SE 21:42:25 23° E 21:45:28 10° NE
Cosmos 2369 Rocket 3.9 21:39:13 10° NNW 21:43:59 27° NE 21:48:44 10° E
JB-3 4.4 21:40:48 10° NNE 21:44:38 60° E 21:48:03 12° S
Aureole 2 Rocket 3.3 21:44:00 10° N 21:46:33 31° ENE 21:48:50 12° ESE
Cosmos 1980 4.1 21:42:12 10° S 21:47:33 46° ESE 21:52:56 10° NE
Cosmos 1538 Rocket 4.2 21:42:48 10° SSW 21:48:11 80° WNW 21:53:32 10° NNE
Nadezhda 3 Rocket 4.1 21:43:12 10° N 21:49:37 79° ENE 21:55:18 13° SSE
Meteor 2-17 Rocket 4.5 21:43:39 10° S 21:49:41 73° E 21:55:44 10° NNE
Cosmos 1076 Rocket 3.7 21:47:32 13° S 21:51:13 56° E 21:55:25 10° NNE
COSMOS 2455 3.8 21:45:33 10° NW 21:51:23 46° NE 21:57:11 10° ESE
COSMOS 2428 2.8 21:49:12 10° SSW 21:54:52 84° WNW 22:00:37 10° NNE
Cosmos 2154 Rocket 4.1 21:49:47 12° S 21:55:34 64° E 22:01:44 10° NNE
ATLAS 2AS CENTAUR R/B 2.9 21:48:38 10° NW 21:56:19 75° SW 22:02:39 13° SE
Thor Agena Rocket 4.1 21:52:44 10° NNE 21:57:36 41° E 22:01:29 15° SSE
Cosmos 2322 4.5 21:52:08 10° SW 21:57:46 56° NW 22:03:25 10° NNE
ATLAS CENTAUR R/B 3.2 21:56:01 10° WNW 21:58:24 16° WSW 22:00:44 10° SSW
Cosmos 2151 4.0 21:55:43 15° SSE 21:58:39 32° E 22:02:29 10° NNE
Cosmos 1869 4.1 21:55:06 10° NNW 21:58:54 45° W 22:02:34 11° SSW
Cosmos 2074 Rocket 4.1 21:55:19 10° SSW 22:01:33 81° W 22:07:49 10° N
BREEZE-M DEB (TANK) 2.4 21:57:08 10° W 22:01:41 39° SSW 22:03:23 17° SE
Genesis I 4.0 22:00:58 15° S 22:03:40 32° ESE 22:07:10 10° ENE
Cosmos 1371 Rocket 4.0 21:59:15 10° NNW 22:04:32 86° WSW 22:08:51 16° SSE
Cosmos 2237 Rocket 2.4 21:59:58 10° S 22:05:32 57° ESE 22:11:08 10° NE
USA 215 3.3 21:59:53 10° ENE 22:06:25 63° SE 22:12:53 10° SW
Cosmos 2219 Rocket 2.6 22:00:55 10° SW 22:06:29 66° NW 22:12:07 10° NNE
SPOT 5 4.5 22:03:34 10° SSW 22:07:47 27° W 22:11:52 10° NW
Cosmos 2360 Rocket 4.1 22:04:36 10° WSW 22:09:42 33° NW 22:14:50 10° NNE
Spot 4 3.9 22:06:50 16° SSE 22:10:40 81° ENE 22:15:29 10° NNW
Cosmos 1151 Rocket 3.9 22:08:23 10° N 22:12:31 40° ENE 22:15:44 15° SE
Cosmos 2344 3.9 22:05:43 10° S 22:12:41 44° ESE 22:20:17 10° NE
Cosmos 158 Rocket 3.9 22:09:32 12° S 22:13:55 61° ESE 22:18:47 10° NNE
GEOS 3 Rocket 4.2 22:11:13 10° NE 22:16:34 65° NW 22:21:55 10° WSW
CZ-4C R/B 3.5 22:10:50 10° NW 22:17:17 53° NNE 22:24:55 10° ESE
Cosmos 2112 Rocket 4.1 22:12:33 12° S 22:17:26 62° ESE 22:22:44 10° NNE
Cosmos 1420 Rocket 4.2 22:14:16 10° NNW 22:19:32 67° ENE 22:23:55 15° SE
ATLAS 5 CENTAUR R/B 3.9 22:18:45 10° NW 22:20:15 17° N 22:21:59 10° NE
Cosmos 2333 Rocket 3.1 22:15:13 10° SW 22:20:47 53° NW 22:26:27 10° NNE
ALOS 2 3.0 22:18:57 16° SE 22:22:16 56° ENE 22:26:36 10° N
Iridium 2 3.8 22:19:13 10° N 22:23:04 73° W 22:25:48 18° S
EO 1 Del DPAF 3.3 22:23:39 10° NNE 22:27:24 62° ESE 22:29:55 19° S
Cosmos 2056 Rocket 3.7 22:22:57 10° NNW 22:28:21 67° WSW 22:32:26 18° S
Cosmos 1892 3.4 22:26:26 11° SSW 22:29:58 51° WNW 22:33:43 10° N
GP-B 3.6 22:25:45 10° N 22:30:05 48° E 22:33:05 19° SSE
NOSS 0 Rocket 4.0 22:24:32 10° SSW 22:30:42 88° WNW 22:36:57 10° NE
Cosmos 1606 2.8 22:31:00 10° N 22:34:54 74° ENE 22:37:25 21° SSE
Cosmos 1295 Rocket 4.5 22:29:34 13° S 22:35:04 88° WNW 22:41:12 10° N
RESURS DK-1 4.1 22:32:33 10° NNW 22:36:15 30° NE 22:39:55 10° ESE
Cosmos 2278 Rocket 3.5 22:31:37 10° NW 22:36:26 29° WSW 22:40:40 12° SSW
ATLAS 5 CENTAUR R/B 3.5 22:34:18 10° W 22:38:29 37° NNW 22:43:17 10° NE
Cosmos 2297 3.8 22:33:44 10° NW 22:39:30 77° WSW 22:43:52 18° SSE
Cosmos 1943 Rocket 2.5 22:34:39 10° NNW 22:40:20 64° NE 22:45:29 12° SE
Cosmos 1408 2.9 22:37:56 15° SSW 22:40:44 59° WNW 22:44:18 10° N
MOS 1-B Rocket 4.5 22:32:47 10° NNE 22:40:45 79° ESE 22:46:38 14° SSW
USA 267 3.8 22:36:39 16° SSE 22:41:27 42° SW 22:47:37 10° WNW
Cosmos 44 3.7 22:40:51 20° S 22:43:16 37° ESE 22:47:23 10° NE
Gbstr 26 Del rocket 4.4 22:44:20 16° SE 22:44:20 16° SE 22:46:34 10° E
Cosmos 1680 Rocket 3.7 22:40:10 10° SSW 22:45:30 76° WNW 22:50:52 10° NNE
Cosmos 371 Rocket 3.3 22:42:59 10° NNW 22:47:53 86° WSW 22:51:21 19° SSE
SL-16 R/B 2.5 22:46:35 18° S 22:50:37 50° ESE 22:56:07 10° NE
APEX 2.2 22:49:48 10° NW 22:52:34 88° NE 22:53:52 28° SE
IRIDIUM 104 4.4 22:49:58 19° S 22:53:41 68° E 22:58:53 10° N
Cosmos 405 4.0 22:50:33 10° N 22:53:54 38° ENE 22:56:11 17° SE
Lacrosse 5 rocket 1.3 22:50:10 10° WNW 22:54:16 80° NNE 22:58:08 10° ESE
CREW DRAGON DEMO-1 DEB 3.5 22:53:16 25° SSW 22:54:16 32° SSE 22:57:04 10° E
Cosmos 1452 Rocket 3.5 22:50:03 10° NNW 22:55:21 85° ENE 22:59:21 18° SSE
Cosmos 1515 Rocket 3.8 22:52:51 10° N 22:57:12 62° ENE 23:00:08 20° SSE
Terra 4.2 22:56:02 10° WSW 22:58:31 14° W 23:01:00 10° NW
IRIDIUM 114 4.3 22:59:06 20° S 23:02:50 79° E 23:08:05 10° N
Cosmos 1328 Rocket 3.5 22:59:02 10° NNW 23:03:21 75° W 23:06:06 22° S
Cosmos 1766 Rocket 3.5 23:01:32 20° S 23:04:32 89° E 23:09:00 10° NNE
Okean 3 Rocket 3.7 23:07:35 18° SSW 23:10:49 72° WNW 23:15:15 10° N
IRIDIUM 103 4.3 23:08:14 20° S 23:11:59 88° W 23:17:15 10° N
EP 3 3.3 23:15:26 61° SW 23:15:42 85° SE 23:17:43 10° NE
Meteor 2-3 Rocket 3.8 23:12:54 20° S 23:16:56 70° E 23:22:39 10° NNE
Cosmos 1340 2.6 23:15:33 24° S 23:17:42 77° E 23:21:29 10° NNE
Cosmos 1825 3.3 23:14:45 13° SW 23:17:45 37° WNW 23:21:19 10° N
Cosmos 2228 Rocket 3.5 23:13:38 10° N 23:18:12 58° ENE 23:21:26 18° SSE
Aureole 2 Rocket 3.9 23:17:57 10° WNW 23:19:59 18° WSW 23:20:49 16° SW
Cosmos 2218 Rocket 4.1 23:17:43 18° S 23:22:40 87° W 23:29:00 10° N
Meteor 1-26 Rocket 4.4 23:18:07 10° NNW 23:24:07 72° W 23:28:23 20° S
Cosmos 2366 rocket 4.1 23:21:57 18° SSW 23:26:53 86° W 23:33:18 10° N
Cosmos 2369 Rocket 2.2 23:23:05 10° NNW 23:28:44 87° WSW 23:33:18 16° SSE
Cosmos 304 Rocket 3.8 23:26:54 10° NNW 23:31:45 73° WSW 23:35:01 21° SSE
Cosmos 1743 Rocket 3.8 23:29:40 22° SSE 23:32:17 58° E 23:36:35 10° NNE
Cosmos 1933 4.3 23:29:29 10° NNW 23:33:13 37° W 23:35:34 19° SSW
SL-4 R/B 1.5 23:33:31 29° WSW 23:33:39 29° W 23:35:31 10° NW
Cosmos 1821 Rocket 4.4 23:30:58 18° SSE 23:35:24 53° E 23:41:19 10° NNE
Cosmos 2151 4.3 23:32:17 11° SW 23:35:56 33° WNW 23:39:50 10° N
YAOGAN 11 4.1 23:33:15 22° S 23:36:02 75° WSW 23:40:30 10° NNW
Helios 1A 3.2 23:34:08 23° S 23:36:35 59° WSW 23:40:42 10° NNW
COSMOS 2455 3.1 23:31:36 10° NW 23:37:31 55° WSW 23:41:47 19° SSE
Cosmos 1656 Rocket 3.9 23:33:27 10° NNW 23:38:52 65° NE 23:44:15 10° SE
Genesis I 4.2 23:37:22 10° WSW 23:41:09 47° NW 23:44:57 10° NE
ATLAS 2AS CENTAUR R/B 4.2 23:40:41 10° WNW 23:46:05 22° WSW 23:50:03 14° SSW
Cosmos 1812 3.3 23:44:55 10° N 23:48:43 51° ENE 23:51:25 18° SSE
USA 215 3.5 23:43:02 10° ENE 23:49:36 76° NNW 23:56:08 10° W
Cosmos 2237 Rocket 3.6 23:44:35 10° WSW 23:49:53 38° NW 23:55:13 10° NNE
Cosmos 1151 Rocket 4.4 23:46:15 10° NNW 23:49:56 27° W 23:52:34 15° SW
Cosmos 1782 3.1 23:46:59 10° NNW 23:50:51 53° W 23:53:04 23° SSW
CZ-2D R/B 4.2 23:49:15 10° NE 23:52:39 17° E 23:56:04 10° SE
Cosmos 1408 Rocket 4.1 23:52:07 18° SW 23:55:14 50° WNW 23:59:34 10° N
